Time,TemperatureF,DewpointF,PressureIn,WindDirection,WindDirectionDegrees,WindSpeedMPH,WindSpeedGustMPH,Humidity,HourlyPrecipIn,Conditions,Clouds,dailyrainin,SoftwareType,DateUTC
2013-06-19 00:00:00,60.9,53.7,29.93,SSE,148,1.0,2.0,77,0.00,,CLR,0.00,VWS V14.01,2013-06-19 04:00:00,
2013-06-19 00:01:00,60.9,53.7,29.93,SW,215,0.0,0.0,77,0.00,,CLR,0.00,VWS V14.01,2013-06-19 04:01:00,
2013-06-19 00:06:00,60.9,51.1,29.93,SE,127,1.0,2.0,70,0.00,,CLR,0.00,VWS V14.01,2013-06-19 04:06:00,
2013-06-19 00:11:00,61.5,49.2,29.93,ESE,115,0.0,4.0,64,0.00,,CLR,0.00,VWS V14.01,2013-06-19 04:11:00,
2013-06-19 00:16:00,61.8,49.1,29.93,East,85,1.0,4.0,63,0.00,,CLR,0.00,VWS V14.01,2013-06-19 04:16:00,
2013-06-19 00:21:00,61.8,49.5,29.93,East,85,0.0,4.0,64,0.00,,CLR,0.00,VWS V14.01,2013-06-19 04:21:00,
2013-06-19 00:26:00,61.5,51.2,29.93,East,85,0.0,4.0,69,0.00,,CLR,0.00,VWS V14.01,2013-06-19 04:26:00,
2013-06-19 00:31:00,61.1,52.0,29.93,East,85,0.0,0.0,72,0.00,,CLR,0.00,VWS V14.01,2013-06-19 04:31:00,
2013-06-19 00:36:00,60.6,51.9,29.93,East,85,0.0,0.0,73,0.00,,CLR,0.00,VWS V14.01,2013-06-19 04:36:00,
2013-06-19 00:41:00,60.2,51.9,29.93,West,266,1.0,2.0,74,0.00,,CLR,0.00,VWS V14.01,2013-06-19 04:41:00,
2013-06-19 00:46:00,59.9,52.0,29.93,West,266,0.0,2.0,75,0.00,,CLR,0.00,VWS V14.01,2013-06-19 04:46:00,
2013-06-19 00:51:00,59.5,51.6,29.93,West,266,0.0,2.0,75,0.00,,CLR,0.00,VWS V14.01,2013-06-19 04:51:00,
2013-06-19 00:56:00,59.0,51.5,29.93,West,266,0.0,2.0,76,0.00,,CLR,0.00,VWS V14.01,2013-06-19 04:56:00,
2013-06-19 01:01:00,58.9,52.1,29.93,West,280,1.0,2.0,78,0.00,,CLR,0.00,VWS V14.01,2013-06-19 05:01:00,
2013-06-19 01:06:00,59.0,52.2,29.93,NW,305,0.0,2.0,78,0.00,,CLR,0.00,VWS V14.01,2013-06-19 05:06:00,
2013-06-19 01:11:00,58.8,52.0,29.93,NW,304,0.0,2.0,78,0.00,,CLR,0.00,VWS V14.01,2013-06-19 05:11:00,
2013-06-19 01:16:00,58.6,51.8,29.94,NW,304,0.0,2.0,78,0.00,,CLR,0.00,VWS V14.01,2013-06-19 05:16:00,
2013-06-19 01:21:00,58.5,52.0,29.94,NW,304,0.0,2.0,79,0.00,,CLR,0.00,VWS V14.01,2013-06-19 05:21:00,
2013-06-19 01:26:00,58.2,51.7,29.94,NW,304,0.0,2.0,79,0.00,,CLR,0.00,VWS V14.01,2013-06-19 05:26:00,
2013-06-19 01:31:00,58.0,51.5,29.94,NW,305,0.0,0.0,79,0.00,,CLR,0.00,VWS V14.01,2013-06-19 05:31:00,
2013-06-19 01:36:00,58.0,51.5,29.94,NW,304,0.0,0.0,79,0.00,,CLR,0.00,VWS V14.01,2013-06-19 05:36:00,
2013-06-19 01:41:00,57.8,51.3,29.95,NW,305,0.0,0.0,79,0.00,,CLR,0.00,VWS V14.01,2013-06-19 05:41:00,
2013-06-19 01:46:00,57.6,51.8,29.95,WNW,302,0.0,0.0,81,0.00,,CLR,0.00,VWS V14.01,2013-06-19 05:46:00,
2013-06-19 01:51:00,57.6,51.8,29.95,WNW,302,0.0,0.0,81,0.00,,CLR,0.00,VWS V14.01,2013-06-19 05:51:00,
2013-06-19 01:56:00,57.6,51.8,29.95,West,268,0.0,0.0,81,0.00,,CLR,0.00,VWS V14.01,2013-06-19 05:56:00,
2013-06-19 02:01:00,57.4,51.6,29.95,West,268,0.0,0.0,81,0.00,,CLR,0.00,VWS V14.01,2013-06-19 06:01:00,
2013-06-19 02:06:00,57.1,51.7,29.95,West,269,0.0,0.0,82,0.00,,CLR,0.00,VWS V14.01,2013-06-19 06:06:00,
2013-06-19 02:11:00,57.0,51.6,29.95,West,269,0.0,0.0,82,0.00,,CLR,0.00,VWS V14.01,2013-06-19 06:11:00,
2013-06-19 02:16:00,56.8,51.0,29.95,West,269,0.0,0.0,81,0.00,,CLR,0.00,VWS V14.01,2013-06-19 06:16:00,
2013-06-19 02:21:00,56.6,50.8,29.95,West,268,0.0,0.0,81,0.00,,CLR,0.00,VWS V14.01,2013-06-19 06:21:00,
2013-06-19 02:26:00,56.4,50.7,29.95,West,269,0.0,0.0,81,0.00,,CLR,0.00,VWS V14.01,2013-06-19 06:26:00,
2013-06-19 02:31:00,56.3,50.9,29.95,West,268,0.0,0.0,82,0.00,,CLR,0.00,VWS V14.01,2013-06-19 06:31:00,
2013-06-19 02:36:00,56.1,51.3,29.95,West,269,0.0,0.0,84,0.00,,CLR,0.00,VWS V14.01,2013-06-19 06:36:00,
2013-06-19 02:41:00,56.0,51.2,29.95,West,268,0.0,0.0,84,0.00,,CLR,0.00,VWS V14.01,2013-06-19 06:41:00,
2013-06-19 02:46:00,56.3,51.9,29.96,West,281,0.0,0.0,85,0.00,,CLR,0.00,VWS V14.01,2013-06-19 06:46:00,
2013-06-19 02:51:00,56.5,52.0,29.96,West,281,0.0,0.0,85,0.00,,CLR,0.00,VWS V14.01,2013-06-19 06:51:00,
2013-06-19 02:56:00,56.6,52.2,29.96,WNW,288,2.0,2.0,85,0.00,,CLR,0.00,VWS V14.01,2013-06-19 06:56:00,
2013-06-19 03:01:00,56.5,51.7,29.96,WNW,287,0.0,2.0,84,0.00,,CLR,0.00,VWS V14.01,2013-06-19 07:01:00,
2013-06-19 03:06:00,56.5,51.4,29.96,WSW,238,1.0,2.0,83,0.00,,CLR,0.00,VWS V14.01,2013-06-19 07:06:00,
2013-06-19 03:11:00,56.4,51.6,29.97,WSW,238,0.0,2.0,84,0.00,,CLR,0.00,VWS V14.01,2013-06-19 07:11:00,
2013-06-19 03:16:00,56.1,51.7,29.97,WSW,238,0.0,2.0,85,0.00,,CLR,0.00,VWS V14.01,2013-06-19 07:16:00,
2013-06-19 03:21:00,55.7,51.3,29.97,WSW,238,0.0,2.0,85,0.00,,CLR,0.00,VWS V14.01,2013-06-19 07:21:00,
2013-06-19 03:26:00,55.4,51.0,29.97,WSW,238,0.0,2.0,85,0.00,,CLR,0.00,VWS V14.01,2013-06-19 07:26:00,
2013-06-19 03:31:00,55.2,50.8,29.97,WSW,238,0.0,0.0,85,0.00,,CLR,0.00,VWS V14.01,2013-06-19 07:31:00,
2013-06-19 03:36:00,55.1,50.7,29.97,WSW,238,0.0,0.0,85,0.00,,CLR,0.00,VWS V14.01,2013-06-19 07:36:00,
2013-06-19 03:41:00,54.9,50.5,29.97,WSW,250,0.0,0.0,85,0.00,,CLR,0.00,VWS V14.01,2013-06-19 07:41:00,
2013-06-19 03:46:00,54.7,50.3,29.97,WSW,250,0.0,0.0,85,0.00,,CLR,0.00,VWS V14.01,2013-06-19 07:46:00,
2013-06-19 03:51:00,54.6,50.5,29.97,WSW,250,0.0,0.0,86,0.00,,CLR,0.00,VWS V14.01,2013-06-19 07:51:00,
2013-06-19 03:56:00,54.5,50.1,29.97,WSW,250,0.0,0.0,85,0.00,,CLR,0.00,VWS V14.01,2013-06-19 07:56:00,
2013-06-19 04:01:00,54.4,50.3,29.98,West,278,1.0,2.0,86,0.00,,CLR,0.00,VWS V14.01,2013-06-19 08:01:00,
2013-06-19 04:06:00,54.5,50.7,29.98,NE,39,0.0,3.0,87,0.00,,CLR,0.00,VWS V14.01,2013-06-19 08:06:00,
2013-06-19 04:11:00,54.5,51.0,29.98,WNW,293,3.0,4.0,88,0.00,,CLR,0.00,VWS V14.01,2013-06-19 08:11:00,
2013-06-19 04:16:00,54.6,50.8,29.97,WNW,283,1.0,4.0,87,0.00,,CLR,0.00,VWS V14.01,2013-06-19 08:16:00,
2013-06-19 04:21:00,54.6,50.8,29.97,NW,319,0.0,4.0,87,0.00,,CLR,0.00,VWS V14.01,2013-06-19 08:21:00,
2013-06-19 04:26:00,54.5,51.0,29.97,WNW,291,0.0,4.0,88,0.00,,CLR,0.00,VWS V14.01,2013-06-19 08:26:00,
2013-06-19 04:31:00,54.3,50.8,29.97,NNW,339,1.0,1.0,88,0.00,,CLR,0.00,VWS V14.01,2013-06-19 08:31:00,
2013-06-19 04:36:00,54.2,50.7,29.98,NNW,328,0.0,1.0,88,0.00,,CLR,0.00,VWS V14.01,2013-06-19 08:36:00,
2013-06-19 04:41:00,54.1,50.9,29.98,WNW,284,0.0,3.0,89,0.00,,CLR,0.00,VWS V14.01,2013-06-19 08:41:00,
2013-06-19 04:46:00,54.1,50.9,29.98,WNW,288,2.0,3.0,89,0.00,,CLR,0.00,VWS V14.01,2013-06-19 08:46:00,
2013-06-19 04:51:00,54.0,50.8,29.98,WNW,302,0.0,3.0,89,0.00,,CLR,0.00,VWS V14.01,2013-06-19 08:51:00,
2013-06-19 04:56:00,53.9,51.0,29.98,WNW,283,1.0,3.0,90,0.00,,CLR,0.00,VWS V14.01,2013-06-19 08:56:00,
2013-06-19 05:01:00,53.8,50.6,29.98,WNW,297,1.0,1.0,89,0.00,,CLR,0.00,VWS V14.01,2013-06-19 09:01:00,
2013-06-19 05:06:00,53.7,50.5,29.99,WSW,257,0.0,2.0,89,0.00,,CLR,0.00,VWS V14.01,2013-06-19 09:06:00,
2013-06-19 05:11:00,53.5,50.3,29.98,West,269,0.0,2.0,89,0.00,,CLR,0.00,VWS V14.01,2013-06-19 09:11:00,
2013-06-19 05:16:00,53.3,50.5,29.99,West,269,0.0,2.0,90,0.00,,CLR,0.00,VWS V14.01,2013-06-19 09:16:00,
2013-06-19 05:21:00,53.1,50.2,29.99,West,268,0.0,2.0,90,0.00,,CLR,0.00,VWS V14.01,2013-06-19 09:21:00,
2013-06-19 05:26:00,52.9,50.0,29.99,West,269,0.0,2.0,90,0.00,,CLR,0.00,VWS V14.01,2013-06-19 09:26:00,
2013-06-19 05:31:00,52.8,50.0,29.99,NW,304,0.0,0.0,90,0.00,,CLR,0.00,VWS V14.01,2013-06-19 09:31:00,
2013-06-19 05:36:00,52.6,49.8,29.99,NW,305,0.0,0.0,90,0.00,,CLR,0.00,VWS V14.01,2013-06-19 09:36:00,
2013-06-19 05:41:00,52.5,50.0,29.99,WNW,295,0.0,0.0,91,0.00,,CLR,0.00,VWS V14.01,2013-06-19 09:41:00,
2013-06-19 05:46:00,52.3,49.5,29.99,WNW,295,0.0,0.0,90,0.00,,CLR,0.00,VWS V14.01,2013-06-19 09:46:00,
2013-06-19 05:51:00,52.1,49.6,29.99,WNW,295,0.0,0.0,91,0.00,,CLR,0.00,VWS V14.01,2013-06-19 09:51:00,
2013-06-19 05:56:00,52.0,49.5,30.00,WNW,293,0.0,0.0,91,0.00,,CLR,0.00,VWS V14.01,2013-06-19 09:56:00,
2013-06-19 06:01:00,51.9,49.4,30.00,WNW,293,0.0,0.0,91,0.00,,CLR,0.00,VWS V14.01,2013-06-19 10:01:00,
2013-06-19 06:06:00,51.9,49.7,30.00,WNW,293,0.0,0.0,92,0.00,,CLR,0.00,VWS V14.01,2013-06-19 10:06:00,
2013-06-19 06:11:00,52.1,49.8,30.00,WNW,293,0.0,0.0,92,0.00,,CLR,0.00,VWS V14.01,2013-06-19 10:11:00,
2013-06-19 06:16:00,52.5,50.5,30.00,West,270,0.0,0.0,93,0.00,,CLR,0.00,VWS V14.01,2013-06-19 10:16:00,
2013-06-19 06:21:00,53.0,50.7,30.00,West,280,2.0,2.0,92,0.00,,CLR,0.00,VWS V14.01,2013-06-19 10:21:00,
2013-06-19 06:26:00,53.4,51.1,30.01,West,281,1.0,2.0,92,0.00,,CLR,0.00,VWS V14.01,2013-06-19 10:26:00,
2013-06-19 06:31:00,53.8,51.2,30.01,WNW,284,0.0,1.0,91,0.00,,CLR,0.00,VWS V14.01,2013-06-19 10:31:00,
2013-06-19 06:36:00,54.3,51.4,30.01,WNW,285,0.0,2.0,90,0.00,,CLR,0.00,VWS V14.01,2013-06-19 10:36:00,
2013-06-19 06:41:00,54.7,51.5,30.01,West,277,1.0,3.0,89,0.00,,CLR,0.00,VWS V14.01,2013-06-19 10:41:00,
2013-06-19 06:46:00,54.8,51.6,30.01,WNW,286,2.0,3.0,89,0.00,,CLR,0.00,VWS V14.01,2013-06-19 10:46:00,
2013-06-19 06:51:00,55.1,51.6,30.01,WNW,290,3.0,3.0,88,0.00,,CLR,0.00,VWS V14.01,2013-06-19 10:51:00,
2013-06-19 06:56:00,55.3,51.5,30.02,WNW,302,2.0,6.0,87,0.00,,CLR,0.00,VWS V14.01,2013-06-19 10:56:00,
2013-06-19 07:01:00,55.7,51.9,30.02,WNW,290,0.0,1.0,87,0.00,,FEW250,0.00,VWS V14.01,2013-06-19 11:01:00,
2013-06-19 07:06:00,56.2,51.8,30.02,WNW,284,2.0,3.0,85,0.00,,FEW250,0.00,VWS V14.01,2013-06-19 11:06:00,
2013-06-19 07:11:00,56.5,52.0,30.02,WNW,293,2.0,3.0,85,0.00,,FEW250,0.00,VWS V14.01,2013-06-19 11:11:00,
2013-06-19 07:16:00,56.8,52.0,30.02,WNW,287,2.0,5.0,84,0.00,,FEW250,0.00,VWS V14.01,2013-06-19 11:16:00,
2013-06-19 07:21:00,57.2,52.1,30.02,WNW,293,3.0,6.0,83,0.00,,FEW250,0.00,VWS V14.01,2013-06-19 11:21:00,
2013-06-19 07:26:00,57.5,51.7,30.02,West,280,2.0,6.0,81,0.00,,FEW250,0.00,VWS V14.01,2013-06-19 11:26:00,
2013-06-19 07:31:00,57.7,51.9,30.03,WNW,283,5.0,7.0,81,0.00,,FEW250,0.00,VWS V14.01,2013-06-19 11:31:00,
2013-06-19 07:36:00,58.0,51.9,30.03,West,276,1.0,7.0,80,0.00,,FEW250,0.00,VWS V14.01,2013-06-19 11:36:00,
2013-06-19 07:41:00,58.6,52.5,30.03,West,273,2.0,7.0,80,0.00,,FEW250,0.00,VWS V14.01,2013-06-19 11:41:00,
2013-06-19 07:46:00,58.8,52.3,30.03,WNW,291,3.0,7.0,79,0.00,,FEW250,0.00,VWS V14.01,2013-06-19 11:46:00,
2013-06-19 07:51:00,59.2,52.3,30.03,West,281,2.0,7.0,78,0.00,,FEW250,0.00,VWS V14.01,2013-06-19 11:51:00,
2013-06-19 07:56:00,59.5,52.3,30.03,WNW,294,4.0,7.0,77,0.00,,FEW250,0.00,VWS V14.01,2013-06-19 11:56:00,
2013-06-19 08:01:00,60.0,52.8,30.03,WNW,286,3.0,4.0,77,0.00,,FEW250,0.00,VWS V14.01,2013-06-19 12:01:00,
2013-06-19 08:06:00,60.3,52.0,30.04,WNW,293,2.0,4.0,74,0.00,,FEW250,0.00,VWS V14.01,2013-06-19 12:06:00,
2013-06-19 08:11:00,60.5,51.8,30.04,NW,324,3.0,6.0,73,0.00,,FEW250,0.00,VWS V14.01,2013-06-19 12:11:00,
2013-06-19 08:16:00,60.8,51.7,30.04,WNW,300,4.0,6.0,72,0.00,,FEW250,0.00,VWS V14.01,2013-06-19 12:16:00,
2013-06-19 08:21:00,61.3,52.6,30.04,WNW,289,2.0,6.0,73,0.00,,FEW250,0.00,VWS V14.01,2013-06-19 12:21:00,
2013-06-19 08:26:00,61.7,52.2,30.05,West,260,0.0,6.0,71,0.00,,FEW250,0.00,VWS V14.01,2013-06-19 12:26:00,
2013-06-19 08:31:00,62.1,52.6,30.05,WSW,253,1.0,3.0,71,0.00,,FEW250,0.00,VWS V14.01,2013-06-19 12:31:00,
2013-06-19 08:36:00,62.5,52.6,30.05,WSW,253,3.0,5.0,70,0.00,,FEW250,0.00,VWS V14.01,2013-06-19 12:36:00,
2013-06-19 08:41:00,62.3,52.4,30.05,SW,235,2.0,5.0,70,0.00,,FEW250,0.00,VWS V14.01,2013-06-19 12:41:00,
2013-06-19 08:46:00,62.7,52.4,30.05,WNW,283,3.0,5.0,69,0.00,,FEW250,0.00,VWS V14.01,2013-06-19 12:46:00,
2013-06-19 08:51:00,62.8,52.5,30.06,West,281,3.0,6.0,69,0.00,,FEW250,0.00,VWS V14.01,2013-06-19 12:51:00,
2013-06-19 08:56:00,63.4,53.5,30.06,WNW,287,0.0,6.0,70,0.00,,FEW250,0.00,VWS V14.01,2013-06-19 12:56:00,
2013-06-19 09:01:00,64.2,53.4,30.06,WNW,287,2.0,3.0,68,0.00,,FEW250,0.00,VWS V14.01,2013-06-19 13:01:00,
2013-06-19 09:05:00,65.0,53.8,30.06,WNW,285,2.0,4.0,67,0.00,,FEW250,0.00,VWS V14.01,2013-06-19 13:05:00,
2013-06-19 09:10:00,65.2,53.6,30.06,SW,232,1.0,5.0,66,0.00,,FEW250,0.00,VWS V14.01,2013-06-19 13:10:00,
2013-06-19 09:15:00,65.3,53.2,30.06,WNW,301,3.0,5.0,65,0.00,,FEW250,0.00,VWS V14.01,2013-06-19 13:15:00,
2013-06-19 09:20:00,65.5,53.4,30.06,WNW,288,2.0,5.0,65,0.00,,FEW250,0.00,VWS V14.01,2013-06-19 13:20:00,
2013-06-19 09:25:00,65.6,53.1,30.07,SW,224,1.0,8.0,64,0.00,,FEW250,0.00,VWS V14.01,2013-06-19 13:25:00,
2013-06-19 09:30:00,65.7,53.2,30.07,SE,139,2.0,3.0,64,0.00,,FEW250,0.00,VWS V14.01,2013-06-19 13:30:00,
2013-06-19 09:35:00,66.2,53.2,30.07,WNW,288,0.0,4.0,63,0.00,,FEW250,0.00,VWS V14.01,2013-06-19 13:35:00,
2013-06-19 09:40:00,67.3,53.8,30.07,SW,225,0.0,4.0,62,0.00,,FEW250,0.00,VWS V14.01,2013-06-19 13:40:00,
2013-06-19 09:45:00,68.0,53.2,30.07,SSW,210,1.0,4.0,59,0.00,,FEW250,0.00,VWS V14.01,2013-06-19 13:45:00,
2013-06-19 09:50:00,68.3,53.4,30.07,West,281,0.0,4.0,59,0.00,,FEW250,0.00,VWS V14.01,2013-06-19 13:50:00,
2013-06-19 09:55:00,68.8,53.4,30.06,SW,223,0.0,4.0,58,0.00,,FEW250,0.00,VWS V14.01,2013-06-19 13:55:00,
2013-06-19 10:00:00,69.0,51.7,30.06,SSW,198,3.0,5.0,54,0.00,,CLR,0.00,VWS V14.01,2013-06-19 14:00:00,
2013-06-19 10:05:00,68.5,52.2,30.07,SW,226,1.0,5.0,56,0.00,,CLR,0.00,VWS V14.01,2013-06-19 14:05:00,
2013-06-19 10:10:00,68.9,52.1,30.07,NNE,25,0.0,5.0,55,0.00,,CLR,0.00,VWS V14.01,2013-06-19 14:10:00,
2013-06-19 10:15:00,69.2,51.9,30.07,WNW,297,3.0,5.0,54,0.00,,CLR,0.00,VWS V14.01,2013-06-19 14:15:00,
2013-06-19 10:20:00,69.0,53.2,30.07,SSW,203,1.0,5.0,57,0.00,,CLR,0.00,VWS V14.01,2013-06-19 14:20:00,
2013-06-19 10:25:00,69.6,53.2,30.07,WSW,240,3.0,5.0,56,0.00,,CLR,0.00,VWS V14.01,2013-06-19 14:25:00,
2013-06-19 10:30:00,70.1,53.7,30.07,SW,233,2.0,5.0,56,0.00,,CLR,0.00,VWS V14.01,2013-06-19 14:30:00,
2013-06-19 10:35:00,69.9,52.0,30.07,SW,226,1.0,7.0,53,0.00,,CLR,0.00,VWS V14.01,2013-06-19 14:35:00,
2013-06-19 10:40:00,69.9,52.5,30.07,SW,225,2.0,7.0,54,0.00,,CLR,0.00,VWS V14.01,2013-06-19 14:40:00,
2013-06-19 10:45:00,71.4,55.4,30.07,SW,226,1.0,7.0,57,0.00,,CLR,0.00,VWS V14.01,2013-06-19 14:45:00,
2013-06-19 10:50:00,72.7,53.0,30.07,NW,309,0.0,7.0,50,0.00,,CLR,0.00,VWS V14.01,2013-06-19 14:50:00,
2013-06-19 10:55:00,73.3,53.6,30.07,WNW,288,1.0,7.0,50,0.00,,CLR,0.00,VWS V14.01,2013-06-19 14:55:00,
2013-06-19 11:00:00,73.6,52.7,30.07,East,94,1.0,1.0,48,0.00,,FEW050,0.00,VWS V14.01,2013-06-19 15:00:00,
2013-06-19 11:05:00,72.8,48.4,30.07,NE,44,4.0,9.0,42,0.00,,FEW050,0.00,VWS V14.01,2013-06-19 15:05:00,
2013-06-19 11:10:00,72.3,46.0,30.07,ENE,63,2.0,9.0,39,0.00,,FEW050,0.00,VWS V14.01,2013-06-19 15:10:00,
2013-06-19 11:15:00,72.0,47.7,30.07,NNE,25,2.0,9.0,42,0.00,,FEW050,0.00,VWS V14.01,2013-06-19 15:15:00,
2013-06-19 11:20:00,72.9,47.8,30.08,NE,51,5.0,9.0,41,0.00,,FEW050,0.00,VWS V14.01,2013-06-19 15:20:00,
2013-06-19 11:25:00,72.3,48.0,30.08,ENE,77,6.0,10.0,42,0.00,,FEW050,0.00,VWS V14.01,2013-06-19 15:25:00,
2013-06-19 11:30:00,72.0,45.7,30.08,East,89,6.0,7.0,39,0.00,,FEW050,0.00,VWS V14.01,2013-06-19 15:30:00,
2013-06-19 11:35:00,71.9,47.6,30.08,ESE,103,2.0,8.0,42,0.00,,FEW050,0.00,VWS V14.01,2013-06-19 15:35:00,
2013-06-19 11:40:00,72.4,48.7,30.08,ESE,118,3.0,8.0,43,0.00,,FEW050,0.00,VWS V14.01,2013-06-19 15:40:00,
2013-06-19 11:45:00,73.2,48.8,30.08,ENE,60,2.0,8.0,42,0.00,,FEW050,0.00,VWS V14.01,2013-06-19 15:45:00,
2013-06-19 11:50:00,73.0,47.3,30.08,NE,36,3.0,8.0,40,0.00,,FEW050,0.00,VWS V14.01,2013-06-19 15:50:00,
2013-06-19 11:55:00,72.5,47.5,30.08,NE,34,3.0,12.0,41,0.00,,FEW050,0.00,VWS V14.01,2013-06-19 15:55:00,
2013-06-19 12:00:00,72.6,46.9,30.08,NNE,20,4.0,7.0,40,0.00,,FEW050,0.00,VWS V14.01,2013-06-19 16:00:00,
2013-06-19 12:05:00,72.9,48.5,30.08,NNE,26,3.0,8.0,42,0.00,,FEW050,0.00,VWS V14.01,2013-06-19 16:05:00,
2013-06-19 12:10:00,72.9,48.5,30.08,ENE,74,1.0,10.0,42,0.00,,FEW050,0.00,VWS V14.01,2013-06-19 16:10:00,
2013-06-19 12:15:00,73.6,47.1,30.08,NNW,342,3.0,11.0,39,0.00,,FEW050,0.00,VWS V14.01,2013-06-19 16:15:00,
2013-06-19 12:20:00,73.5,47.0,30.08,ENE,63,6.0,11.0,39,0.00,,FEW050,0.00,VWS V14.01,2013-06-19 16:20:00,
2013-06-19 12:25:00,73.4,47.0,30.08,East,82,3.0,11.0,39,0.00,,FEW050,0.00,VWS V14.01,2013-06-19 16:25:00,
2013-06-19 12:30:00,73.6,47.8,30.08,North,11,2.0,2.0,40,0.00,,FEW050,0.00,VWS V14.01,2013-06-19 16:30:00,
2013-06-19 12:35:00,73.8,47.3,30.08,North,6,11.0,11.0,39,0.00,,FEW050,0.00,VWS V14.01,2013-06-19 16:35:00,
2013-06-19 12:40:00,73.0,47.3,30.07,ENE,68,3.0,11.0,40,0.00,,FEW050,0.00,VWS V14.01,2013-06-19 16:40:00,
2013-06-19 12:45:00,72.6,45.6,30.07,ESE,104,1.0,11.0,38,0.00,,FEW050,0.00,VWS V14.01,2013-06-19 16:45:00,
2013-06-19 12:50:00,73.2,47.5,30.07,NNE,22,2.0,11.0,40,0.00,,FEW050,0.00,VWS V14.01,2013-06-19 16:50:00,
2013-06-19 12:55:00,74.5,48.6,30.07,East,94,4.0,11.0,40,0.00,,FEW050,0.00,VWS V14.01,2013-06-19 16:55:00,
2013-06-19 13:00:00,74.3,47.8,30.07,ESE,122,0.0,1.0,39,0.00,,SCT050,0.00,VWS V14.01,2013-06-19 17:00:00,
2013-06-19 13:05:00,75.0,48.4,30.07,East,98,5.0,6.0,39,0.00,,SCT050,0.00,VWS V14.01,2013-06-19 17:05:00,
2013-06-19 13:10:00,74.4,45.0,30.07,SSW,208,2.0,6.0,35,0.00,,SCT050,0.00,VWS V14.01,2013-06-19 17:10:00,
2013-06-19 13:15:00,74.3,47.8,30.07,NNE,33,1.0,6.0,39,0.00,,SCT050,0.00,VWS V14.01,2013-06-19 17:15:00,
2013-06-19 13:20:00,75.4,49.4,30.07,NNE,23,5.0,6.0,40,0.00,,SCT050,0.00,VWS V14.01,2013-06-19 17:20:00,
2013-06-19 13:25:00,74.2,47.0,30.07,ENE,61,2.0,11.0,38,0.00,,SCT050,0.00,VWS V14.01,2013-06-19 17:25:00,
2013-06-19 13:30:00,73.4,48.9,30.07,NE,51,2.0,2.0,42,0.00,,SCT050,0.00,VWS V14.01,2013-06-19 17:30:00,
2013-06-19 13:35:00,73.5,47.0,30.06,ESE,108,3.0,9.0,39,0.00,,SCT050,0.00,VWS V14.01,2013-06-19 17:35:00,
2013-06-19 13:40:00,74.1,48.3,30.06,ENE,71,5.0,9.0,40,0.00,,SCT050,0.00,VWS V14.01,2013-06-19 17:40:00,
2013-06-19 13:45:00,73.7,48.6,30.06,ENE,75,3.0,9.0,41,0.00,,SCT050,0.00,VWS V14.01,2013-06-19 17:45:00,
2013-06-19 13:50:00,73.3,47.5,30.06,NNE,33,4.0,11.0,40,0.00,,SCT050,0.00,VWS V14.01,2013-06-19 17:50:00,
2013-06-19 13:55:00,74.1,49.6,30.06,ENE,68,1.0,11.0,42,0.00,,SCT050,0.00,VWS V14.01,2013-06-19 17:55:00,
2013-06-19 14:00:00,75.3,50.0,30.06,NNE,24,2.0,2.0,41,0.00,,CLR,0.00,VWS V14.01,2013-06-19 18:00:00,
2013-06-19 14:05:00,75.2,47.9,30.06,NNE,32,3.0,7.0,38,0.00,,CLR,0.00,VWS V14.01,2013-06-19 18:05:00,
2013-06-19 14:10:00,74.8,48.9,30.06,NE,37,2.0,8.0,40,0.00,,CLR,0.00,VWS V14.01,2013-06-19 18:10:00,
2013-06-19 14:15:00,75.3,50.0,30.06,WNW,302,1.0,8.0,41,0.00,,CLR,0.00,VWS V14.01,2013-06-19 18:15:00,
2013-06-19 14:20:00,76.5,51.1,30.06,NNE,19,4.0,8.0,41,0.00,,CLR,0.00,VWS V14.01,2013-06-19 18:20:00,
2013-06-19 14:25:00,77.0,49.5,30.06,North,356,0.0,8.0,38,0.00,,CLR,0.00,VWS V14.01,2013-06-19 18:25:00,
2013-06-19 14:30:00,77.3,48.3,30.06,WNW,287,0.0,0.0,36,0.00,,CLR,0.00,VWS V14.01,2013-06-19 18:30:00,
2013-06-19 14:35:00,77.6,50.0,30.06,NNE,23,2.0,6.0,38,0.00,,CLR,0.00,VWS V14.01,2013-06-19 18:35:00,
2013-06-19 14:40:00,77.4,48.4,30.06,ENE,76,5.0,6.0,36,0.00,,CLR,0.00,VWS V14.01,2013-06-19 18:40:00,
2013-06-19 14:45:00,75.9,49.2,30.06,NNE,18,6.0,7.0,39,0.00,,CLR,0.00,VWS V14.01,2013-06-19 18:45:00,
2013-06-19 14:50:00,76.0,49.3,30.06,NE,38,2.0,7.0,39,0.00,,CLR,0.00,VWS V14.01,2013-06-19 18:50:00,
2013-06-19 14:55:00,76.9,50.8,30.06,East,79,0.0,7.0,40,0.00,,CLR,0.00,VWS V14.01,2013-06-19 18:55:00,
2013-06-19 15:00:00,77.7,48.7,30.06,WNW,283,7.0,8.0,36,0.00,,SCT060,0.00,VWS V14.01,2013-06-19 19:00:00,
2013-06-19 15:05:00,77.2,48.2,30.05,West,278,3.0,9.0,36,0.00,,SCT060,0.00,VWS V14.01,2013-06-19 19:05:00,
2013-06-19 15:10:00,76.0,47.9,30.05,West,267,6.0,9.0,37,0.00,,SCT060,0.00,VWS V14.01,2013-06-19 19:10:00,
2013-06-19 15:15:00,76.7,49.9,30.06,WNW,302,0.0,9.0,39,0.00,,SCT060,0.00,VWS V14.01,2013-06-19 19:15:00,
2013-06-19 15:20:00,77.0,49.5,30.06,West,273,2.0,9.0,38,0.00,,SCT060,0.00,VWS V14.01,2013-06-19 19:20:00,
2013-06-19 15:25:00,77.5,49.2,30.06,NNE,22,5.0,9.0,37,0.00,,SCT060,0.00,VWS V14.01,2013-06-19 19:25:00,
2013-06-19 15:30:00,77.7,47.9,30.06,North,8,2.0,2.0,35,0.00,,SCT060,0.00,VWS V14.01,2013-06-19 19:30:00,
2013-06-19 15:35:00,77.7,48.7,30.06,ENE,73,7.0,7.0,36,0.00,,SCT060,0.00,VWS V14.01,2013-06-19 19:35:00,
2013-06-19 15:40:00,76.4,47.5,30.05,NW,312,1.0,7.0,36,0.00,,SCT060,0.00,VWS V14.01,2013-06-19 19:40:00,
2013-06-19 15:45:00,75.9,48.5,30.06,North,11,1.0,7.0,38,0.00,,SCT060,0.00,VWS V14.01,2013-06-19 19:45:00,
2013-06-19 15:50:00,76.6,48.4,30.06,North,4,3.0,7.0,37,0.00,,SCT060,0.00,VWS V14.01,2013-06-19 19:50:00,
2013-06-19 15:55:00,76.5,49.0,30.06,NNW,330,2.0,7.0,38,0.00,,SCT060,0.00,VWS V14.01,2013-06-19 19:55:00,
2013-06-19 16:00:00,76.5,49.0,30.06,WNW,293,3.0,3.0,38,0.00,,SCT060,0.00,VWS V14.01,2013-06-19 20:00:00,
2013-06-19 16:05:00,76.0,49.3,30.05,ESE,117,3.0,4.0,39,0.00,,SCT060,0.00,VWS V14.01,2013-06-19 20:05:00,
2013-06-19 16:10:00,75.8,49.1,30.06,ENE,74,1.0,7.0,39,0.00,,SCT060,0.00,VWS V14.01,2013-06-19 20:10:00,
2013-06-19 16:15:00,76.1,48.0,30.05,ESE,104,0.0,7.0,37,0.00,,SCT060,0.00,VWS V14.01,2013-06-19 20:15:00,
2013-06-19 16:20:00,76.6,48.4,30.05,WNW,293,1.0,7.0,37,0.00,,SCT060,0.00,VWS V14.01,2013-06-19 20:20:00,
2013-06-19 16:25:00,77.1,50.3,30.05,WNW,287,2.0,7.0,39,0.00,,SCT060,0.00,VWS V14.01,2013-06-19 20:25:00,
2013-06-19 16:30:00,77.6,50.0,30.05,NNE,23,3.0,3.0,38,0.00,,SCT060,0.00,VWS V14.01,2013-06-19 20:30:00,
2013-06-19 16:35:00,77.4,49.8,30.05,NNW,334,1.0,6.0,38,0.00,,SCT060,0.00,VWS V14.01,2013-06-19 20:35:00,
2013-06-19 16:40:00,77.9,48.8,30.05,WNW,285,4.0,6.0,36,0.00,,SCT060,0.00,VWS V14.01,2013-06-19 20:40:00,
2013-06-19 16:45:00,77.1,47.4,30.04,SW,224,3.0,6.0,35,0.00,,SCT060,0.00,VWS V14.01,2013-06-19 20:45:00,
2013-06-19 16:50:00,77.6,50.0,30.04,West,269,3.0,6.0,38,0.00,,SCT060,0.00,VWS V14.01,2013-06-19 20:50:00,
2013-06-19 16:55:00,78.4,48.5,30.04,North,11,3.0,6.0,35,0.00,,SCT060,0.00,VWS V14.01,2013-06-19 20:55:00,
2013-06-19 17:00:00,78.7,49.5,30.04,NNW,344,1.0,6.0,36,0.00,,SCT060,0.00,VWS V14.01,2013-06-19 21:00:00,
2013-06-19 17:05:00,79.0,49.8,30.04,NE,37,2.0,6.0,36,0.00,,SCT060,0.00,VWS V14.01,2013-06-19 21:05:00,
2013-06-19 17:10:00,78.6,47.9,30.04,WSW,255,0.0,6.0,34,0.00,,SCT060,0.00,VWS V14.01,2013-06-19 21:10:00,
2013-06-19 17:15:00,78.5,48.6,30.04,East,86,3.0,6.0,35,0.00,,SCT060,0.00,VWS V14.01,2013-06-19 21:15:00,
2013-06-19 17:20:00,78.0,48.9,30.04,ESE,117,1.0,6.0,36,0.00,,SCT060,0.00,VWS V14.01,2013-06-19 21:20:00,
2013-06-19 17:25:00,78.2,48.3,30.03,NNE,16,0.0,6.0,35,0.00,,SCT060,0.00,VWS V14.01,2013-06-19 21:25:00,
2013-06-19 17:30:00,78.6,47.1,30.03,SE,131,0.0,0.0,33,0.00,,SCT060,0.00,VWS V14.01,2013-06-19 21:30:00,
2013-06-19 17:35:00,78.4,47.0,30.04,West,271,1.0,5.0,33,0.00,,SCT060,0.00,VWS V14.01,2013-06-19 21:35:00,
2013-06-19 17:40:00,78.0,47.4,30.03,NW,304,6.0,8.0,34,0.00,,SCT060,0.00,VWS V14.01,2013-06-19 21:40:00,
2013-06-19 17:45:00,77.9,48.1,30.03,WNW,295,0.0,8.0,35,0.00,,SCT060,0.00,VWS V14.01,2013-06-19 21:45:00,
2013-06-19 17:50:00,78.3,48.4,30.03,NE,40,2.0,8.0,35,0.00,,SCT060,0.00,VWS V14.01,2013-06-19 21:50:00,
2013-06-19 17:55:00,77.4,46.9,30.04,ESE,103,0.0,8.0,34,0.00,,SCT060,0.00,VWS V14.01,2013-06-19 21:55:00,
2013-06-19 18:00:00,77.4,48.4,30.04,West,281,4.0,8.0,36,0.00,,SCT070,0.00,VWS V14.01,2013-06-19 22:00:00,
2013-06-19 18:05:00,77.4,48.4,30.04,West,269,4.0,8.0,36,0.00,,SCT070,0.00,VWS V14.01,2013-06-19 22:05:00,
2013-06-19 18:10:00,77.3,47.5,30.04,West,281,3.0,8.0,35,0.00,,SCT070,0.00,VWS V14.01,2013-06-19 22:10:00,
2013-06-19 18:15:00,77.3,47.5,30.04,NW,322,1.0,8.0,35,0.00,,SCT070,0.00,VWS V14.01,2013-06-19 22:15:00,
2013-06-19 18:20:00,77.5,47.0,30.04,ENE,64,0.0,8.0,34,0.00,,SCT070,0.00,VWS V14.01,2013-06-19 22:20:00,
2013-06-19 18:25:00,78.1,47.5,30.04,NNW,330,1.0,8.0,34,0.00,,SCT070,0.00,VWS V14.01,2013-06-19 22:25:00,
2013-06-19 18:30:00,78.3,49.2,30.04,WNW,289,3.0,8.0,36,0.00,,SCT070,0.00,VWS V14.01,2013-06-19 22:30:00,
2013-06-19 18:35:00,78.5,48.6,30.04,West,278,3.0,4.0,35,0.00,,SCT070,0.00,VWS V14.01,2013-06-19 22:35:00,
2013-06-19 18:40:00,78.3,49.2,30.04,West,269,0.0,6.0,36,0.00,,SCT070,0.00,VWS V14.01,2013-06-19 22:40:00,
2013-06-19 18:45:00,78.7,48.8,30.04,North,357,1.0,6.0,35,0.00,,SCT070,0.00,VWS V14.01,2013-06-19 22:45:00,
2013-06-19 18:50:00,79.0,49.0,30.04,NNW,348,1.0,6.0,35,0.00,,SCT070,0.00,VWS V14.01,2013-06-19 22:50:00,
2013-06-19 18:55:00,79.5,49.5,30.04,NE,40,2.0,6.0,35,0.00,,SCT070,0.00,VWS V14.01,2013-06-19 22:55:00,
2013-06-19 19:00:00,78.2,47.6,30.05,North,4,3.0,7.0,34,0.00,,CLR,0.00,VWS V14.01,2013-06-19 23:00:00,
2013-06-19 19:05:00,77.1,47.4,30.05,NNE,29,2.0,6.0,35,0.00,,CLR,0.00,VWS V14.01,2013-06-19 23:05:00,
2013-06-19 19:10:00,76.8,47.1,30.05,NE,42,1.0,6.0,35,0.00,,CLR,0.00,VWS V14.01,2013-06-19 23:10:00,
2013-06-19 19:15:00,76.7,47.0,30.05,NNE,27,2.0,6.0,35,0.00,,CLR,0.00,VWS V14.01,2013-06-19 23:15:00,
2013-06-19 19:20:00,77.1,47.4,30.05,NNE,21,4.0,6.0,35,0.00,,CLR,0.00,VWS V14.01,2013-06-19 23:20:00,
2013-06-19 19:25:00,76.8,47.8,30.05,North,1,3.0,6.0,36,0.00,,CLR,0.00,VWS V14.01,2013-06-19 23:25:00,
2013-06-19 19:30:00,76.6,46.9,30.05,NE,39,1.0,6.0,35,0.00,,CLR,0.00,VWS V14.01,2013-06-19 23:30:00,
2013-06-19 19:35:00,76.6,46.9,30.05,NE,39,1.0,3.0,35,0.00,,CLR,0.00,VWS V14.01,2013-06-19 23:35:00,
2013-06-19 19:40:00,76.4,46.8,30.05,North,8,3.0,4.0,35,0.00,,CLR,0.00,VWS V14.01,2013-06-19 23:40:00,
2013-06-19 19:45:00,76.0,47.2,30.05,NNE,33,1.0,4.0,36,0.00,,CLR,0.00,VWS V14.01,2013-06-19 23:45:00,
2013-06-19 19:50:00,75.9,47.8,30.05,NNE,21,0.0,4.0,37,0.00,,CLR,0.00,VWS V14.01,2013-06-19 23:50:00,
2013-06-19 19:55:00,75.6,47.5,30.05,NNE,33,0.0,4.0,37,0.00,,CLR,0.00,VWS V14.01,2013-06-19 23:55:00,
2013-06-19 20:00:00,75.3,47.3,30.06,NE,38,0.0,0.0,37,0.00,,CLR,0.00,VWS V14.01,2013-06-20 00:00:00,
2013-06-19 20:05:00,74.6,47.3,30.06,East,85,0.0,1.0,38,0.00,,CLR,0.00,VWS V14.01,2013-06-20 00:05:00,
2013-06-19 20:10:00,74.0,47.5,30.05,NE,56,1.0,3.0,39,0.00,,CLR,0.00,VWS V14.01,2013-06-20 00:10:00,
2013-06-19 20:15:00,73.5,50.3,30.06,SSW,204,0.0,3.0,44,0.00,,CLR,0.00,VWS V14.01,2013-06-20 00:15:00,
2013-06-19 20:20:00,72.9,50.9,30.06,SE,132,0.0,3.0,46,0.00,,CLR,0.00,VWS V14.01,2013-06-20 00:20:00,
2013-06-19 20:25:00,72.0,51.3,30.06,SW,235,0.0,3.0,48,0.00,,CLR,0.00,VWS V14.01,2013-06-20 00:25:00,
2013-06-19 20:30:00,71.1,51.0,30.06,SW,233,0.0,0.0,49,0.00,,CLR,0.00,VWS V14.01,2013-06-20 00:30:00,
2013-06-19 20:35:00,70.2,51.2,30.06,SW,233,0.0,0.0,51,0.00,,CLR,0.00,VWS V14.01,2013-06-20 00:35:00,
2013-06-19 20:40:00,69.5,51.6,30.06,East,91,0.0,0.0,53,0.00,,CLR,0.00,VWS V14.01,2013-06-20 00:40:00,
2013-06-19 20:45:00,68.9,52.1,30.06,SE,129,0.0,0.0,55,0.00,,CLR,0.00,VWS V14.01,2013-06-20 00:45:00,
2013-06-19 20:50:00,68.4,51.6,30.06,East,86,0.0,0.0,55,0.00,,CLR,0.00,VWS V14.01,2013-06-20 00:50:00,
2013-06-19 20:55:00,68.0,51.7,30.07,ESE,107,0.0,0.0,56,0.00,,CLR,0.00,VWS V14.01,2013-06-20 00:55:00,
2013-06-19 21:00:00,67.6,51.4,30.07,ESE,105,0.0,0.0,56,0.00,,CLR,0.00,VWS V14.01,2013-06-20 01:00:00,
2013-06-19 21:05:00,67.2,51.5,30.07,ENE,74,0.0,0.0,57,0.00,,CLR,0.00,VWS V14.01,2013-06-20 01:05:00,
2013-06-19 21:10:00,66.8,51.1,30.07,SSE,153,0.0,0.0,57,0.00,,CLR,0.00,VWS V14.01,2013-06-20 01:10:00,
2013-06-19 21:15:00,66.3,51.6,30.08,SE,141,0.0,0.0,59,0.00,,CLR,0.00,VWS V14.01,2013-06-20 01:15:00,
2013-06-19 21:20:00,66.0,51.7,30.08,East,87,0.0,0.0,60,0.00,,CLR,0.00,VWS V14.01,2013-06-20 01:20:00,
2013-06-19 21:25:00,65.8,51.5,30.08,East,97,2.0,2.0,60,0.00,,CLR,0.00,VWS V14.01,2013-06-20 01:25:00,
2013-06-19 21:30:00,65.8,51.5,30.08,ESE,103,0.0,0.0,60,0.00,,CLR,0.00,VWS V14.01,2013-06-20 01:30:00,
2013-06-19 21:35:00,65.6,51.8,30.09,ESE,102,0.0,1.0,61,0.00,,CLR,0.00,VWS V14.01,2013-06-20 01:35:00,
2013-06-19 21:40:00,65.4,52.5,30.09,East,82,0.0,4.0,63,0.00,,CLR,0.00,VWS V14.01,2013-06-20 01:40:00,
2013-06-19 21:45:00,65.2,52.3,30.09,ESE,119,0.0,4.0,63,0.00,,CLR,0.00,VWS V14.01,2013-06-20 01:45:00,
2013-06-19 21:50:00,64.8,52.3,30.09,ESE,118,0.0,4.0,64,0.00,,CLR,0.00,VWS V14.01,2013-06-20 01:50:00,
2013-06-19 21:55:00,64.3,51.9,30.10,ESE,118,0.0,4.0,64,0.00,,CLR,0.00,VWS V14.01,2013-06-20 01:55:00,
2013-06-19 22:00:00,63.9,52.3,30.10,NE,56,0.0,4.0,66,0.00,,CLR,0.00,VWS V14.01,2013-06-20 02:00:00,
2013-06-19 22:05:00,63.8,52.7,30.10,East,89,1.0,3.0,67,0.00,,CLR,0.00,VWS V14.01,2013-06-20 02:05:00,
2013-06-19 22:10:00,63.5,52.4,30.10,East,89,0.0,3.0,67,0.00,,CLR,0.00,VWS V14.01,2013-06-20 02:10:00,
2013-06-19 22:15:00,63.3,52.2,30.10,East,89,0.0,3.0,67,0.00,,CLR,0.00,VWS V14.01,2013-06-20 02:15:00,
2013-06-19 22:20:00,62.9,52.2,30.11,East,89,0.0,3.0,68,0.00,,CLR,0.00,VWS V14.01,2013-06-20 02:20:00,
2013-06-19 22:25:00,62.5,52.2,30.11,East,89,0.0,3.0,69,0.00,,CLR,0.00,VWS V14.01,2013-06-20 02:25:00,
2013-06-19 22:30:00,62.3,52.8,30.11,ESE,103,0.0,3.0,71,0.00,,CLR,0.00,VWS V14.01,2013-06-20 02:30:00,
2013-06-19 22:35:00,62.0,52.9,30.11,NE,39,0.0,2.0,72,0.00,,CLR,0.00,VWS V14.01,2013-06-20 02:35:00,
2013-06-19 22:40:00,61.8,52.7,30.11,ENE,60,0.0,3.0,72,0.00,,CLR,0.00,VWS V14.01,2013-06-20 02:40:00,
2013-06-19 22:45:00,61.5,52.8,30.12,East,92,2.0,4.0,73,0.00,,CLR,0.00,VWS V14.01,2013-06-20 02:45:00,
2013-06-19 22:50:00,61.2,52.9,30.12,NE,53,0.0,4.0,74,0.00,,CLR,0.00,VWS V14.01,2013-06-20 02:50:00,
2013-06-19 22:55:00,60.8,52.8,30.12,East,96,0.0,4.0,75,0.00,,CLR,0.00,VWS V14.01,2013-06-20 02:55:00,
2013-06-19 23:00:00,60.5,52.9,30.12,NNE,33,1.0,4.0,76,0.00,,CLR,0.00,VWS V14.01,2013-06-20 03:00:00,
2013-06-19 23:05:00,60.3,52.7,30.13,NE,37,2.0,3.0,76,0.00,,CLR,0.00,VWS V14.01,2013-06-20 03:05:00,
2013-06-19 23:10:00,60.1,52.9,30.13,NNE,33,0.0,4.0,77,0.00,,CLR,0.00,VWS V14.01,2013-06-20 03:10:00,
2013-06-19 23:15:00,59.9,52.7,30.13,NNE,32,0.0,4.0,77,0.00,,CLR,0.00,VWS V14.01,2013-06-20 03:15:00,
2013-06-19 23:20:00,59.7,52.5,30.13,NE,40,0.0,4.0,77,0.00,,CLR,0.00,VWS V14.01,2013-06-20 03:20:00,
2013-06-19 23:25:00,59.4,52.5,30.13,NE,47,0.0,4.0,78,0.00,,CLR,0.00,VWS V14.01,2013-06-20 03:25:00,
2013-06-19 23:30:00,59.2,52.7,30.13,East,84,0.0,4.0,79,0.00,,CLR,0.00,VWS V14.01,2013-06-20 03:30:00,
2013-06-19 23:35:00,59.1,52.6,30.14,East,98,0.0,3.0,79,0.00,,CLR,0.00,VWS V14.01,2013-06-20 03:35:00,
2013-06-19 23:40:00,58.9,52.4,30.14,NE,41,0.0,3.0,79,0.00,,CLR,0.00,VWS V14.01,2013-06-20 03:40:00,
2013-06-19 23:45:00,58.7,52.6,30.14,ENE,65,0.0,3.0,80,0.00,,CLR,0.00,VWS V14.01,2013-06-20 03:45:00,
2013-06-19 23:50:00,58.5,52.4,30.14,ESE,102,0.0,3.0,80,0.00,,CLR,0.00,VWS V14.01,2013-06-20 03:50:00,
2013-06-19 23:55:00,58.3,52.5,30.14,NE,36,1.0,3.0,81,0.00,,CLR,0.00,VWS V14.01,2013-06-20 03:55:00,